Location: Sweep
(40.7333°S, 175.7833°E)
Time: 09:19:31
(UTC+00:00)

Daily predictions for brighter satellites

Satellite Brightness Start Highest point End
(mag) Time Altitude Azimuth Time Altitude Azimuth Time Altitude Azimuth
ALOS 2 4.3 12:07:59 10° SSE 12:10:34 29° SE 12:10:34 29° SE
ATLAS 3B R/B 4.0 12:16:58 10° SSW 12:22:34 33° SE 12:27:40 13° ENE
NOSS 3-1 (A) 4.3 12:18:31 10° SW 12:22:39 35° WSW 12:22:39 35° WSW
Cosmos 2154 Rocket 4.2 12:27:07 62° E 12:27:14 62° E 12:33:29 10° SSE
IDEFIX/ARIANE 42P 3.3 12:33:56 46° ESE 12:34:01 46° ESE 12:39:03 10° S
Cosmos 2181 Rocket 4.0 12:28:18 10° S 12:34:48 79° W 12:34:53 79° WNW
Cosmos 2297 Rocket 2.5 12:35:59 61° ESE 12:35:59 61° ESE 12:40:59 10° SSE
Cosmos 2322 3.9 12:30:04 10° SSW 12:35:06 66° SW 12:35:06 66° SW
COSMOS 2428 2.8 12:31:16 10° SSW 12:36:29 73° SSW 12:36:29 73° SSW
Cosmos 1295 Rocket 4.4 12:37:39 86° NW 12:37:45 87° W 12:44:09 10° S
Spot 4 4.4 12:42:54 10° S 12:46:54 57° SSW 12:46:54 57° SSW
Cosmos 2237 Rocket 2.9 12:44:16 10° SSW 12:49:52 49° ESE 12:50:59 43° E
ARIANE 5 R/B 3.8 12:50:42 10° S 12:54:02 38° SW 12:54:02 38° SW
Meteor 1-21 4.2 12:51:50 10° S 12:57:35 81° ESE 12:57:35 81° ESE
Cosmos 1515 Rocket 4.5 12:55:19 10° S 12:58:37 48° S 12:58:37 48° S
Cosmos 1538 Rocket 4.2 13:02:27 65° ESE 13:02:27 65° ESE 13:07:27 10° SSE
SeaSat 1 4.3 13:05:03 19° WSW 13:05:03 19° WSW 13:06:54 10° SW
Meteor 2-13 Rocket 4.4 12:57:20 10° SSW 13:03:26 68° W 13:03:26 68° W
Cosmos 1610 Rocket 4.3 13:09:46 80° NNW 13:10:09 87° W 13:16:26 10° S
USA 267 4.0 13:14:57 35° W 13:14:57 35° W 13:19:23 10° WSW
Nadezhda 3 Rocket 3.9 13:07:31 10° S 13:13:53 75° W 13:14:19 72° NW
Sich 1 3.9 13:15:28 47° S 13:15:28 47° S 13:18:36 10° S
Cosmos 2074 Rocket 4.4 13:14:02 48° W 13:14:28 49° WSW 13:20:38 10° S
ADEOS II 3.8 13:17:17 17° ENE 13:20:14 29° ESE 13:24:43 10° S
Cosmos 2227 Rocket 2.1 13:23:28 71° NE 13:23:41 72° ENE 13:29:23 10° SSE
CZ-2C R/B 3.3 13:20:16 10° SSE 13:25:18 43° E 13:25:54 41° ENE
ARGOS Delta rocket 3.9 13:27:21 66° SSE 13:27:21 66° SSE 13:31:20 10° S
MSX 4.0 13:30:13 57° W 13:30:13 57° W 13:35:50 10° SSW
NOSS 0 Rocket 4.3 13:24:23 10° SW 13:29:45 46° W 13:29:45 46° W
Cosmos 1805 Rocket 3.9 13:32:21 62° SSW 13:32:21 62° SSW 13:36:10 10° S
FENGYUN 3A 3.5 13:33:28 77° WNW 13:33:37 78° WNW 13:39:08 10° SSW
Cosmos 1339 Rocket 4.3 13:27:28 10° SSW 13:33:37 71° W 13:34:14 66° NW
ATLAS 2AS CENTAUR R/B 4.2 13:34:58 18° W 13:39:00 30° SW 13:45:21 10° SSE
H-2A R/B 3.4 13:41:11 28° ENE 13:42:22 34° ESE 13:46:10 10° S
NPP 4.0 13:45:32 48° W 13:45:32 48° W 13:50:28 10° SSW
ARIANE 6 FM1 Upper Stage 4.4 13:46:45 25° ENE 13:46:45 25° ENE 13:50:11 10° ESE
Cosmos 962 Rocket 4.4 13:46:37 59° NW 13:47:39 71° W 13:53:53 10° S
Cosmos 923 Rocket 3.9 13:47:42 70° NNE 13:48:10 75° ENE 13:53:25 10° SSE
Cosmos 44 3.5 13:48:08 59° WSW 13:48:24 60° SW 13:53:18 10° SSE
Cosmos 2263 Rocket 2.3 13:51:06 56° NNE 13:52:06 68° ENE 13:57:48 10° SSE
SL-8 Rocket 3.9 13:50:58 56° NNW 13:52:25 83° W 13:58:48 10° S
CZ-2D R/B 2.1 13:52:09 52° NNE 13:53:29 79° ESE 13:58:54 10° S
Cosmos 1959 Rocket 4.4 13:52:43 51° N 13:54:23 81° E 14:00:35 10° S
ACS3 Solar Sail 3.4 13:49:12 10° NE 13:54:36 31° ESE 13:59:59 10° S
SL-16 R/B 3.1 13:49:25 10° SSW 13:54:57 47° ESE 14:00:25 10° NE
USA 229 DEB 3.3 13:49:35 10° SW 13:55:52 64° WNW 13:56:34 59° NNW
USA 229 3.2 13:49:50 10° SW 13:56:07 65° WNW 13:56:50 59° NNW
Meteor 2-10 Rocket 3.4 13:57:00 66° WNW 13:57:28 71° W 14:02:50 10° S
Resurs 1-4 Rocket 2.0 13:57:11 59° N 13:58:15 86° WNW 14:03:39 10° SSW
Cosmos 1500 Rocket 4.5 13:58:57 37° WSW 13:58:57 37° WSW 14:02:35 10° S
Cosmos 1821 Rocket 4.3 13:56:40 38° NNE 13:59:10 64° E 14:05:30 10° SSE
Cosmos 1633 Rocket 3.7 13:59:04 43° ENE 13:59:42 47° E 14:03:57 10° SSE
Meteor 2-19 Rocket 4.3 13:53:48 10° S 13:59:57 80° W 14:01:35 51° N
Tiangong 0.1 14:03:01 22° E 14:03:01 22° E 14:04:19 10° E
Cosmos 2219 3.6 14:00:53 44° NNE 14:02:25 57° ENE 14:08:04 10° SSE
H-2A R/B 3.3 14:00:51 12° NE 14:05:10 38° ESE 14:10:01 10° S
Cosmos 2366 rocket 4.0 14:04:07 51° NNW 14:05:46 73° W 14:12:08 10° S
Okean 1-7 3.8 14:02:38 10° S 14:06:42 45° E 14:07:57 34° NE
Cosmos 1862 Rocket 3.9 14:03:53 10° S 14:08:18 63° E 14:09:15 49° NE
Cosmos 2228 Rocket 3.7 14:07:09 10° S 14:11:32 52° E 14:13:08 34° NE
Okean 3 4.4 14:09:08 10° SSW 14:12:00 34° WSW 14:12:00 34° WSW
ATLAS 3B R/B 2.6 14:07:17 10° SW 14:13:23 52° WNW 14:14:47 44° NNW
IDEFIX/ARIANE 42P 4.1 14:14:37 20° WSW 14:14:37 20° WSW 14:17:40 10° SW
GEOS 3 Rocket 3.6 14:10:05 10° SE 14:15:10 70° NE 14:16:21 51° N
Cosmos 724 4.3 14:16:26 46° N 14:18:09 72° ENE 14:23:56 10° SE
Cosmos 2297 Rocket 4.0 14:17:45 17° W 14:19:52 20° SW 14:24:00 10° S
H-2A R/B 4.4 14:21:55 10° SE 14:24:47 21° E 14:26:38 15° NE
Cosmos 2218 Rocket 4.3 14:25:57 39° NW 14:27:59 53° WSW 14:34:19 10° S
Cosmos 494 Rocket 3.9 14:26:53 45° N 14:28:34 83° ENE 14:33:49 10° SSE
NOAA 11 4.5 14:29:04 42° NW 14:30:00 47° W 14:35:18 10° SSW
Cosmos 1680 Rocket 3.6 14:28:41 45° NW 14:30:07 64° WSW 14:35:27 10° SSE
Cosmos 1607 4.0 14:29:01 38° NNW 14:31:42 81° ENE 14:38:10 10° SE
Cosmos 2237 Rocket 3.5 14:29:05 10° SW 14:32:45 23° W 14:32:45 23° W
Cosmos 1707 Rocket 3.5 14:30:18 10° SSW 14:34:39 66° W 14:35:27 53° NNW
ALOS 2.4 14:37:57 46° NW 14:38:37 50° W 14:43:08 10° SSW
Cosmos 1420 Rocket 4.1 14:33:35 10° SSW 14:38:42 55° WNW 14:40:22 38° NNW
Meteor 2-5 Rocket 4.4 14:32:58 10° S 14:38:52 58° ESE 14:44:45 10° NNE
Cosmos 1624 Rocket 4.0 14:35:42 10° SSW 14:41:04 89° ESE 14:45:41 14° NNE
Cosmos 1818 3.7 14:41:15 10° SSW 14:46:41 77° ESE 14:52:05 10° NE
Cosmos 1666 Rocket 4.1 14:46:36 37° WNW 14:47:19 40° WSW 14:51:31 10° S
Cosmos 1048 Rocket 4.3 14:44:32 27° N 14:47:27 65° ENE 14:52:49 10° SSE
Cosmos 1328 4.0 14:44:05 10° S 14:47:43 61° E 14:49:44 24° NNE
Meteor 1-22 Rocket 4.4 14:47:13 30° NNW 14:50:18 71° W 14:56:19 10° S
USA 308 2.3 14:47:46 10° SW 14:51:00 87° SE 14:55:05 10° NE
Meteor 2-14 Rocket 4.4 14:48:58 10° SSW 14:55:10 69° W 14:59:41 19° N
SL-4 R/B 4.2 14:53:18 10° SW 14:56:41 25° SSE 14:59:58 10° ESE
ADEOS II 2.7 14:58:05 30° NW 14:59:37 36° W 15:04:30 10° SSW
Envisat 3.8 15:00:16 28° WNW 15:01:20 31° W 15:05:52 10° SW
Cosmos 1900 4.3 14:58:56 30° NNW 15:01:21 78° ENE 15:06:14 10° SSE
CZ-2C R/B 4.0 15:01:04 10° SSW 15:05:15 24° WSW 15:07:22 19° W
Cosmos 2227 Rocket 4.0 15:05:15 13° W 15:08:18 19° SW 15:12:17 10° S
METEOR-M 4.3 15:08:12 20° NNW 15:11:45 50° W 15:17:00 10° SSW
Cosmos 381 Rocket 4.5 15:09:20 20° NNW 15:13:56 84° WSW 15:20:21 10° SSE
ADEOS Rocket 3.6 15:06:22 10° N 15:13:57 57° W 15:21:11 10° SSW
Cosmos 1703 Rocket 3.4 15:09:41 10° S 15:14:05 81° W 15:18:08 12° N
Cosmos 1867 3.6 15:11:54 22° NNW 15:15:28 76° ENE 15:20:54 10° SE
H-2A R/B 3.4 15:17:36 20° W 15:17:46 20° W 15:20:53 10° SW
MOS 1-B Rocket 4.3 15:10:30 10° NNE 15:17:57 88° ESE 15:24:22 10° SSW
ARGOS 3.3 15:12:39 10° NNE 15:18:03 81° ESE 15:23:31 10° S
CZ-2C R/B 2.8 15:14:20 10° NNE 15:19:19 68° ESE 15:24:13 10° S
Meteor 2-8 Rocket 4.4 15:16:15 14° N 15:21:40 83° W 15:27:53 10° S
Cosmos 2227 4.2 15:17:29 18° NNW 15:21:47 84° ENE 15:27:29 10° SSE
Cosmos 1953 2.7 15:23:09 26° NW 15:24:41 39° WSW 15:28:13 10° S
ARIANE 6 FM1 Upper Stage 3.7 15:22:48 20° WNW 15:25:24 39° SW 15:29:40 10° SSE
Cosmos 1844 3.9 15:20:58 14° NNW 15:25:47 69° ENE 15:31:24 10° SSE
Meteor 1-12 Rocket 4.3 15:22:38 12° N 15:28:02 83° W 15:33:53 10° S
Cosmos 2056 Rocket 4.3 15:25:23 10° SW 15:30:03 32° W 15:34:01 13° NNW
Meteor 1-24 Rocket 4.2 15:25:22 10° SSW 15:31:11 48° W 15:36:53 10° NNW
PAYLOAD A 4.1 15:26:39 10° NNE 15:31:28 75° ESE 15:36:13 10° S
Meteor 1-16 Rocket 4.1 15:28:01 13° NNW 15:32:54 72° W 15:38:20 10° S
Delta 2 Rocket 3.6 15:32:14 24° NW 15:33:01 27° N 15:35:42 10° NE
CZ-2D R/B 3.9 15:33:24 12° W 15:34:04 12° W 15:36:16 10° WSW
CZ-4C R/B 3.2 15:28:53 16° NW 15:36:31 81° SW 15:44:07 10° SSE
Cosmos 2263 Rocket 3.9 15:32:45 11° W 15:36:32 20° SW 15:40:41 10° S
ACS3 Solar Sail 2.2 15:31:25 10° NNW 15:37:18 43° W 15:43:14 10° SSW
Tiangong -1.9 15:35:21 14° W 15:37:59 53° NNW 15:41:11 10° ENE
SL-16 R/B 3.2 15:34:10 10° SW 15:38:42 25° WNW 15:42:43 12° NNW
Cosmos 1844 Rocket 2.7 15:34:04 14° NNW 15:39:02 82° WSW 15:44:48 10° SSE
Cosmos 1605 Rocket 4.1 15:34:03 10° N 15:40:23 84° E 15:46:53 10° S
Cosmos 1933 Rocket 4.1 15:40:05 15° NW 15:43:24 42° WSW 15:47:42 10° S
H-2A R/B 3.1 15:41:21 15° NW 15:44:33 26° W 15:48:52 10° SW
H-2A R/B 3.3 15:43:37 10° NNE 15:47:29 85° ESE 15:51:26 10° SSW
SL-08 RB Rocket 3.6 15:45:29 10° N 15:49:54 82° WNW 15:54:25 10° SSW
Cosmos 614 Rocket 3.9 15:45:00 10° NNW 15:50:03 81° WSW 15:55:12 10° SSE
Spot 2 4.3 15:48:08 10° S 15:52:35 55° WSW 15:56:45 10° NNW
ATLAS CENTAUR R/B 0.9 15:51:32 16° NW 15:53:43 49° SW 15:56:37 10° SSE
Cosmos 1939 Rocket 3.0 15:53:23 10° NNE 15:57:04 70° ESE 16:00:48 10° S
H-2A R/B 3.5 15:55:48 10° SSW 15:58:53 25° WSW 16:01:50 11° WNW
FengYun 1-2 T 4.5 15:56:23 10° NNE 16:02:04 80° ESE 16:07:48 10° SSW
Cosmos 1110 Rocket 4.3 15:57:49 10° SSW 16:02:46 44° WNW 16:07:43 10° N
BREEZE-M DEB (TANK) 3.4 15:50:30 10° WSW 16:03:17 74° NW 16:06:56 10° NE
MOZ.5/SAFIR/RUBIN 5/SL-8 4.4 16:01:28 10° S 16:05:49 40° WSW 16:10:07 10° NW
Cosmos 1302 Rocket 4.2 16:00:59 10° SSW 16:06:17 78° ESE 16:11:30 10° NNE
Cosmos 1869 Rocket 4.4 16:03:09 10° NW 16:07:14 35° WSW 16:11:24 10° S
USA 308 4.3 16:13:03 10° W 16:15:15 15° NW 16:17:36 10° NNW
Cosmos 2242 Rocket 3.6 16:15:49 10° SSW 16:20:18 73° W 16:24:41 10° N
